Location: Sternwarte Stuttgart
(48.7670°N, 9.1830°E)
Time: 03:50:11
(UTC+01:00)

Cosmos 1437 Rocket - Pass Details

Date: 24 January 2019
Orbit: 506 x 564 km, 81.2° (Epoch: 19 February)

Event Time Altitude Azimuth Distance (km) Brightness Sun altitude
Exits shadow 06:39:54 - 347° (NNW) 2,645 6.0 -13.6°
Reaches altitude 10° 06:41:54 10° 346° (NNW) 1,823 5.2 -13.3°
Maximum altitude 06:45:54 77° 261° (W) 556 2.7 -12.7°
Drops below altitude 10° 06:49:48 10° 175° (S) 1,771 5.7 -12.0°
Sets 06:51:54 0° 174° (S) 2,645 6.6 -11.7°
